STARLINK-34722

Last updated on Tue Aug 19 2025 00:02:06 GMT+0000 (Coordinated Universal Time)

1 64851U 25152K 25230.58335648 .00064339 00000+0 16408-2 0 9998 2 64851 97.6040 84.2011 0002212 86.7606 318.6286 15.39290808 5204
UTC large
Height (km)
Speed (km/s)
/
Latitude / Longitude
Inclination (degrees)
Orbital Period (minutes)
Azimuth
Elevation
Range (km)
Doppler Factor

Next 0 passes for location: London (51.5072 / 0.1276)

Sorry there are no passes over London.